Regional Weather Roundup
Issued by NWS

Current Version | Previous Version | Text Only | Print | Product List | Glossary On
Versions: 1 2 3 4 5 6 7 8 9 10 11 12 13 14 15 16 17 18 19 20 21 22 23 24 25 26 27 28 29 30 31 32 33 34 35 36 37 38 39 40 41 42 43 44 45 46 47 48 49 50
000
ASUS43 KBIS 061820
RWRND

NORTH DAKOTA REGIONAL WEATHER ROUNDUP
NATIONAL WEATHER SERVICE BISMARCK ND
100 PM CDT WED MAY 06 2015

NOTE: "FAIR" INDICATES FEW OR NO CLOUDS BELOW 12,000 FEET WITH NO
SIGNIFICANT WEATHER AND/OR OBSTRUCTIONS TO VISIBILITY.


NDZ001>003-009>011-017-061900-
NORTHWEST NORTH DAKOTA

CITY           SKY/WX    TMP DP  RH WIND       PRES   REMARKS
WILLISTON      RAIN      59  57  93 SE6       29.71S FOG
6HR MIN TEMP:  58; 6HR MAX TEMP:  63; 6HR PCP:  0.18;

MINOT          RAIN      61  58  90 E10       29.72F FOG
MINOT AFB      LGT RAIN  61  61 100 SE9       29.72F FOG
$$

NDZ018>021-031>035-040>046-061900-
SOUTHWEST NORTH DAKOTA

CITY           SKY/WX    TMP DP  RH WIND       PRES   REMARKS
BISMARCK       CLOUDY    65  61  87 SE16      29.70F
6HR MIN TEMP:  59; 6HR MAX TEMP:  63; 6HR PCP:  0.10;

DICKINSON      LGT RAIN  61  56  83 SE8       29.68F
GARRISON         N/A     59  57  93 SE6       29.71F
6HR MIN TEMP:  58; 6HR MAX TEMP:  61; 6HR PCP:  0.16;

HETTINGER ARPT RAIN      59  55  87 S6        29.69F FOG
$$

NDZ004>008-012>016-024-026-027-054-061900-
NORTHEAST NORTH DAKOTA

CITY           SKY/WX    TMP DP  RH WIND       PRES   REMARKS
GRAND FORKS    CLOUDY    61  59  93 S14G23    29.85F
GRND FRKS AFB  CLOUDY    59  58  94 S12       29.85F
DEVILS LAKE    CLOUDY    57  54  88 SE13      29.79F
$$

NDZ022-023-025-028>030-036>039-047>053-061900-
SOUTHEAST NORTH DAKOTA

CITY           SKY/WX    TMP DP  RH WIND       PRES   REMARKS
FARGO          LGT RAIN  63  59  87 SE13      29.85F
6HR MIN TEMP:  59; 6HR MAX TEMP:  63; 6HR PCP:  0.10;

JAMESTOWN      CLOUDY    62  59  90 SE17G26   29.78F FOG
$$




USA.gov is the U.S. government's official web portal to all federal, state and local government web resources and services.